This is the latest recevied weather packets stored in our database for station/object KB0RPJ. If no packets are shown the sender has not sent any weather packets the latest 10 day(s).
| Time | Temp. | Humidity | Pressure | Rain* | Wind** | Luminosity | Snow |
|---|---|---|---|---|---|---|---|
| 1778172304 | 17.22° C | 47% | 1013.9 hPa | 0 mm | - | 874 W/m² | - |
| 1778172005 | 17.22° C | 48% | 1013.9 hPa | 0 mm | - | 879 W/m² | - |
| 1778171705 | 17.22° C | 49% | 1014 hPa | 0 mm | - | 862 W/m² | - |
| 1778171405 | 16.67° C | 49% | 1014 hPa | 0 mm | - | 861 W/m² | - |
| 1778171104 | 16.67° C | 50% | 1014.1 hPa | 0 mm | - | 858 W/m² | - |
| 1778170805 | 16.67° C | 48% | 1014.2 hPa | 0 mm | - | 842 W/m² | - |
| 1778170504 | 16.67° C | 50% | 1014.2 hPa | 0 mm | - | 783 W/m² | - |
| 1778170205 | 16.67° C | 50% | 1014.2 hPa | 0 mm | - | 802 W/m² | - |
| 1778169904 | 16.67° C | 51% | 1014.3 hPa | 0 mm | - | 788 W/m² | - |
| 1778169604 | 16.11° C | 51% | 1014.3 hPa | 0 mm | - | 779 W/m² | - |
| 1778169304 | 16.11° C | 52% | 1014.5 hPa | 0 mm | - | 773 W/m² | - |
| 1778169005 | 15.56° C | 52% | 1014.5 hPa | 0 mm | - | 753 W/m² | - |
| 1778168705 | 15.56° C | 54% | 1014.5 hPa | 0 mm | - | 738 W/m² | - |
| 1778168420 | 15.56° C | 53% | 1014.6 hPa | 0 mm | - | 725 W/m² | - |
| 1778168105 | 15° C | 54% | 1014.6 hPa | 0 mm | - | 711 W/m² | - |
| 1778167805 | 15° C | 54% | 1014.6 hPa | 0 mm | - | 698 W/m² | - |
| 1778167505 | 14.44° C | 55% | 1014.6 hPa | 0 mm | - | 686 W/m² | - |
| 1778167206 | 14.44° C | 56% | 1014.5 hPa | 0 mm | - | 670 W/m² | - |
| 1778166904 | 14.44° C | 56% | 1014.6 hPa | 0 mm | - | 655 W/m² | - |
| 1778166605 | 13.89° C | 57% | 1014.7 hPa | 0 mm | - | 639 W/m² | - |
| 1778166305 | 13.89° C | 57% | 1014.6 hPa | 0 mm | - | 627 W/m² | - |
| 1778166005 | 13.89° C | 58% | 1014.8 hPa | 0 mm | - | 611 W/m² | - |
| 1778165705 | 13.89° C | 59% | 1014.8 hPa | 0 mm | - | 177 W/m² | - |
| 1778165407 | 13.33° C | 61% | 1014.8 hPa | 0 mm | - | 193 W/m² | - |
| 1778165104 | 13.33° C | 62% | 1014.9 hPa | 0 mm | - | 85 W/m² | - |
* Rain latest hour (hover to see other rain measurements)
** Current wind speed in m/s (hover to see current wind gust speed)